Voltar ao catálogo

SL-12 DEB

AtivoHEO
NORAD 24990·DEBRIS·🇷🇺 Russia

Lançado Sep 16, 1987 de Baikonur Cosmodrome

Loading…

Próximas Passagens (próximas 24 horas)

TLE

AtualizadoSource: Space-Track

Época: Sep 14, 2026, 07:24 UTC

1 24990U 87079J   26257.30853832  .00000097  00000-0  38509-3 0  9993
2 24990  64.7152  64.6712 5328288  16.5872 355.6686  4.81059275508601

Acompanhe SL-12 DEB em tempo real com AllMySat

Download on the App Store